CAPE
0 0 0 0 0 0 0 0 0 0 0 0 0 0 0 0 0 0 0 0 0 0 0 0 0 0 0 0 0 0 0 0
0 0 0 0 0 1 0 0 0 0 0 0 0 0 0 0 0 0 0 0 0 0 0 0 0 0 0 0 0 0 0 0
0 0 0 0 0 0 0 0 0 0 0 0 0 0 0 0 0 0 0 0 0 0 0 0 0 0 0 0 0 0 0 0
0 0 0 0 0 0 0 0 0 0 0 0 0 0 0 0 0 0 0 0 0 0 0 0 0 0 0 0 0 0 0 0
0 0 0 0 0 0 0 0 0 0 0 0 0 0 0 0 0 0 0 0 0 0 0 0 0 0 0 0 0 0 0 0
0 0 0 0 0 0 0 0 0 0 0 0 0 0 0 0 0 0 0 0 0 0 0 0 0 0 0 0 0 0 0 0
0 0 0 0 0 0 0 0 0 0 0 0 0 0 0 0 0 0 0 0 0 0 0 0 0 0 0 0 0 0 0 0
0 0 0 0 0 0 0 0 0 0 0 0 0 0 0 0 0 0 0 0 0 0 0 0 0 0 0 0 0 0 0 0
0 0 0 0 0 0 0 0 0 0 0 0 0 0 0 0 0 0 0 0 0 0 0 0 0 0 0 0 0 0 0 0
0 0 0 0 0 0 0 0 0 0 0 0 0 0 0 0 0 0 0 0 0 0 0 0 0 0 0 0 0 0 0 0
0 0 0 0 0 0 0 0 0 0 0 0 0 0 0 0 0 0 0 0 0 0 0 0 0 0 0 0 0 0 0 0
0 0 0 0 0 0 0 0 0 0 0 0 0 0 0 0 0 0 0 0 0 0 0 0 0 0 0 0 0 0 0 0
0 0 0 0 0 0 0 0 0 0 0 0 0 0 0 0 0 0 0 0 0 0 0 0 0 0 0 0 0 0 0 0
0 0 0 0 0 0 0 0 0 0 0 0 0 0 0 0 0 0 0 0 0 0 0 0 0 0 0 0 0 0 0 0
0 0 0 0 0 0 0 0 0 0 0 0 0 0 0 0 0 0 0 0 0 0 0 0 0 0 0 0 0 0 0 0
0 0 0 0 0 0 0 0 0 0 0 0 0 0 0 0 0 0 0 0 0 0 0 0 0 0 0 0 0 0 0 0
0 0 0 0 0 0 0 0 0 0 0 0 0 0 0 0 0 0 0 0 0 0 0 0 0 0 0 0 0 0 0 0
0 0 0 0 0 0 0 0 0 0 0 0 0 0 0 0 0 0 0 0 0 0 0 0 0 0 0 0 0 0 0 0
0 0 0 0 0 0 0 0 0 0 0 0 0 0 0 0 0 0 0 0 0 0 0 0 0 0 0 0 0 0 0 0
CIN
0 0 0 0 0 0 0 0 0 0 0 0 0 0 0 0 0 0 0 0 0 0 0 0 0 0 0 0 0 0 0 0
0 0 0 0 0 0 0 0 0 0 0 0 0 0 0 0 0 0 0 0 0 0 0 0 0 0 0 0 0 0 0 0
0 0 0 0 0 0 0 0 0 0 0 0 0 0 0 0 0 0 0 0 0 0 0 0 0 0 0 0 0 0 0 0
0 0 0 0 0 0 0 0 0 0 0 0 0 0 0 0 0 0 0 0 0 0 0 0 0 0 0 0 0 0 0 0
0 0 0 0 0 0 0 0 0 0 0 0 0 0 0 0 0 0 0 0 0 0 0 0 0 0 0 0 0 0 0 0
0 0 0 0 0 0 0 0 0 0 0 0 0 0 0 0 0 0 0 0 0 0 0 0 0 0 0 0 0 0 0 0
0 0 0 0 0 0 0 0 0 0 0 0 0 0 0 0 0 0 0 0 0 0 0 0 0 0 0 0 0 0 0 0
0 0 0 0 0 0 0 0 0 0 0 0 0 0 0 0 0 0 0 0 0 0 0 0 0 0 0 0 0 0 0 0
0 0 0 0 0 0 0 0 0 0 0 0 0 0 0 0 0 0 0 0 0 0 0 0 0 0 0 0 0 0 0 0
0 0 0 0 0 0 0 0 0 0 0 0 0 0 0 0 0 0 0 0 0 0 0 0 0 0 0 0 0 0 0 0
0 0 0 0 0 0 0 0 0 0 0 0 0 0 0 0 0 0 0 0 0 0 0 0 0 0 0 0 0 0 0 0
0 0 0 0 0 0 0 0 0 0 0 0 0 0 0 0 0 0 0 0 0 0 0 0 0 0 0 0 0 0 0 0
0 0 0 0 0 0 0 0 0 0 0 0 0 0 0 0 0 0 0 0 0 0 0 0 0 0 0 0 0 0 0 0
0 0 0 0 0 0 0 0 0 0 0 0 0 0 0 0 0 0 0 0 0 0 0 0 0 0 0 0 0 0 0 0
0 0 0 0 0 0 0 0 0 0 0 0 0 0 0 0 0 0 0 0 0 0 0 0 0 0 0 0 0 0 0 0
0 0 0 0 0 0 0 0 0 0 0 0 0 0 0 0 0 0 0 0 0 0 0 0 0 0 0 0 0 0 0 0
0 0 0 0 0 0 0 0 0 0 0 0 0 0 0 0 0 0 0 0 0 0 0 0 0 0 0 0 0 0 0 0
0 0 0 0 0 0 0 0 0 0 0 0 0 0 0 0 0 0 0 0 0 0 0 0 0 0 0 0 0 0 0 0
0 0 0 0 0 0 0 0 0 0 0 0 0 0 0 0 0 0 0 0 0 0 0 0 0 0 0 0 0 0 0 0
Wind_Speed
8 7 9 8 7 10 3 5 7 8 10 11 11 13 15 16 17 18 19 20 21 21 22 23 23 23 23 24 24 22 20 19
11 7 8 8 8 3 3 6 7 5 9 10 12 14 15 16 17 18 19 20 21 21 22 23 23 24 24 23 24 24 22 20
9 7 9 8 4 4 6 2 2 5 8 10 12 13 14 15 16 17 18 19 20 21 22 23 23 23 25 25 25 23 25 24
8 7 6 4 4 2 1 2 3 8 8 8 10 11 13 15 16 16 18 19 20 21 22 22 22 23 24 25 26 25 24 26
8 8 8 5 5 2 1 2 4 6 6 7 9 12 12 14 14 14 16 18 19 20 21 22 22 23 24 25 26 26 25 25
11 10 9 6 4 3 2 2 4 4 7 9 10 10 10 11 11 12 14 16 17 19 20 21 22 22 24 25 25 26 26 26
13 10 8 6 6 5 4 3 4 5 6 9 10 8 8 8 9 10 13 14 15 17 19 21 22 22 23 24 24 25 26 26
15 13 11 11 9 7 5 4 4 4 5 8 8 7 6 6 8 9 10 13 14 16 18 20 22 23 23 23 24 25 26 27
13 12 10 9 8 6 5 5 4 4 5 6 7 5 5 6 7 8 10 12 13 15 17 19 21 22 23 23 24 25 26 27
15 13 11 9 7 6 6 7 7 5 4 4 3 3 4 5 6 8 9 11 13 14 15 17 20 21 23 23 24 26 27 27
13 14 12 9 7 6 5 6 5 4 4 2 1 2 3 4 6 7 9 11 12 13 14 16 19 21 22 24 25 26 27 28
14 13 12 10 7 5 5 4 4 2 2 2 1 1 2 4 5 7 9 10 11 13 14 16 18 20 22 24 25 26 28 29
12 14 15 12 9 7 4 3 4 4 3 3 2 1 2 3 5 7 8 9 11 12 14 15 17 19 22 24 25 26 28 30
13 16 18 16 14 10 7 5 6 5 4 4 3 2 2 3 5 6 7 8 10 12 13 14 16 19 21 23 25 26 28 29
14 15 18 17 14 11 10 10 8 8 6 4 3 2 2 3 4 5 6 8 10 11 13 14 15 17 20 22 24 26 28 29
12 16 18 18 15 13 9 10 12 12 9 8 7 4 3 3 4 5 6 7 9 10 12 13 14 16 19 22 24 26 27 29
12 16 18 18 17 15 11 12 13 12 10 9 7 5 3 3 3 4 5 7 8 9 11 12 13 16 18 21 23 25 27 29
13 15 18 19 19 15 15 15 13 12 11 9 8 6 4 3 4 4 5 6 7 9 10 11 13 14 17 20 23 25 26 29
10 13 17 21 19 17 14 14 15 14 12 10 8 7 5 5 5 6 5 6 7 8 9 11 12 14 16 19 21 24 26 28
Wind_Direction
311 320 306 324 320 275 354 319 299 306 293 309 323 331 335 339 343 347 351 356 2 9 12 10 7 8 10 12 12 15 17 17
305 315 308 310 301 307 292 290 283 345 313 348 326 324 330 338 345 349 356 1 4 9 14 13 15 14 15 16 20 18 15 14
297 310 290 298 323 302 289 341 45 352 338 359 346 328 329 338 345 353 360 4 10 14 17 20 20 20 19 17 18 18 16 10
277 287 288 319 307 300 341 24 316 312 337 340 346 345 338 339 343 353 3 13 17 20 22 23 19 21 18 17 16 17 17 17
264 266 274 287 294 312 81 2 339 326 347 338 340 331 331 331 339 358 12 19 23 24 24 21 21 21 18 18 18 18 18 17
252 254 264 276 291 292 285 335 347 343 326 323 341 341 348 352 0 7 22 23 22 21 21 21 19 21 22 20 17 16 16 17
249 249 250 265 284 291 293 296 328 342 334 336 327 340 355 1 7 14 19 21 22 18 20 19 19 21 22 20 20 17 17 17
241 235 238 254 264 272 280 284 305 335 343 338 336 345 352 19 21 20 17 16 17 19 19 18 18 20 21 21 19 17 14 13
222 220 224 233 244 256 268 275 290 315 337 340 342 3 13 20 15 19 16 17 18 24 24 24 21 19 18 19 18 17 15 14
211 210 219 220 228 237 258 272 282 293 308 322 354 8 20 34 30 19 13 16 20 26 27 23 19 16 15 15 15 14 16 17
208 207 209 210 219 242 261 274 277 283 284 295 341 32 13 15 21 17 20 23 26 33 33 24 19 15 13 14 17 18 17 15
187 190 196 196 198 225 244 263 263 241 197 234 241 324 352 349 6 23 27 30 33 31 30 25 20 17 15 15 18 16 14 13
186 180 174 176 180 176 204 229 208 194 189 210 222 291 321 359 15 28 35 37 29 24 28 30 27 23 18 15 15 15 13 12
173 175 174 173 171 169 167 175 176 181 185 175 225 270 5 33 37 38 38 30 26 30 32 40 32 26 22 17 16 16 15 14
165 175 176 176 175 174 160 155 167 169 178 188 165 132 89 55 50 49 35 27 31 36 38 40 34 29 22 19 18 16 15 15
171 174 178 179 179 176 174 163 158 157 161 153 146 133 104 77 65 43 32 31 37 41 40 41 38 29 22 18 17 17 16 14
170 172 177 180 180 179 178 169 164 161 162 157 149 143 127 104 73 53 49 45 42 43 47 44 38 29 25 22 19 16 15 13
180 177 177 178 179 181 174 171 169 169 168 164 158 154 146 125 103 85 75 71 59 61 50 42 35 31 25 20 16 15 14 11
179 181 178 177 178 177 176 172 173 172 172 169 166 164 157 139 124 115 92 87 84 63 43 33 29 24 21 16 14 13 12 10